CAPE
0 0 0 0 0 0 0 0 0 0 0 0 0 0 0 0 0 0 0 0 0 0 0 13 710 997 1237 1074 882 696 745 659 517 458 325 372 588 660 833 843 667 652 765 711
0 0 0 0 0 0 0 0 0 0 0 0 0 0 0 0 0 0 0 0 0 0 0 68 661 999 1019 708 835 928 986 889 751 673 553 300 868 880 679 794 736 584 326 409
0 0 0 0 0 0 0 0 0 0 0 0 0 0 0 0 0 0 0 0 0 0 0 88 652 871 998 950 1052 1167 1220 1187 945 751 469 510 339 654 942 892 512 141 179 318
0 0 0 0 0 0 0 0 0 0 0 0 0 0 0 0 0 0 0 0 0 0 0 94 500 630 1024 1203 1227 1300 1383 1306 1038 788 551 393 476 659 510 458 141 333 209 200
0 0 0 0 0 0 0 0 0 0 0 0 0 0 0 0 0 0 0 0 0 0 0 23 692 718 893 1061 1101 1242 1121 890 686 358 181 359 284 443 576 717 611 559 468 675
0 0 0 0 0 0 0 0 0 0 0 0 0 0 0 0 0 0 0 0 0 0 0 16 785 1050 1004 1016 941 753 511 507 362 355 644 761 996 1083 1167 1153 1193 858 906 1071
20 10 4 1 1 0 0 0 0 0 0 0 0 0 0 0 0 0 0 0 0 0 0 630 1366 1573 1544 1372 968 779 673 590 687 853 1024 1446 1467 984 1287 1137 1030 534 680 844
76 70 45 0 0 0 0 0 0 0 0 0 0 0 0 0 0 0 0 0 0 0 99 1031 1472 1711 1685 1495 1211 1226 1055 879 840 1380 1331 1187 1146 713 785 743 754 385 277 197
30 0 15 30 3 7 0 0 0 0 0 0 0 0 12 8 0 11 280 412 529 504 871 1113 1406 1635 1698 1478 1676 1276 952 913 845 908 986 990 1001 738 595 451 337 192 126 70
10 25 22 34 55 13 3 0 0 0 0 0 0 0 0 11 47 55 41 68 409 471 906 1033 1435 1540 1300 1069 790 765 404 446 417 474 525 586 582 448 378 235 127 74 84 73
8 1 0 2 23 2 7 0 0 0 0 0 0 26 5 83 293 48 97 155 200 439 799 1221 757 670 527 297 187 230 197 164 186 241 258 188 256 207 158 133 98 83 77 53
18 27 0 10 0 0 0 0 0 0 0 0 0 49 5 231 204 395 515 610 614 763 637 619 470 339 194 45 47 55 58 50 40 16 39 79 119 111 52 64 36 20 3 0
8 6 0 0 3 3 1 0 0 0 0 0 0 24 23 121 205 367 372 504 456 364 321 232 145 55 20 23 14 7 27 13 0 0 0 0 0 3 0 0 0 0 0 0
0 41 0 0 0 0 0 0 4 0 0 0 0 38 44 141 392 206 242 240 217 173 97 48 32 12 0 1 0 0 0 0 0 0 0 0 0 0 0 0 0 0 0 0
0 4 0 37 3 0 0 0 0 6 0 0 35 71 72 138 182 211 169 106 69 75 64 22 0 0 0 0 0 0 0 0 0 0 0 0 0 0 0 0 0 0 0 0
0 25 4 83 134 124 15 12 55 12 4 1 29 47 30 72 174 162 141 107 48 58 71 53 8 0 0 0 0 0 0 0 0 0 0 0 0 0 0 0 0 0 0 0
1 51 0 19 100 48 60 45 31 34 32 16 54 65 57 54 79 76 48 38 64 43 55 7 2 0 0 3 1 0 0 0 0 0 0 0 0 0 0 0 0 0 0 0
5 39 1 16 2 0 0 11 56 66 47 63 90 148 129 88 28 13 9 20 15 9 3 1 5 0 0 2 0 0 0 0 0 0 0 0 0 0 0 0 0 0 0 0
4 0 0 0 0 2 5 48 56 34 18 63 141 131 98 30 16 35 20 15 13 23 6 0 1 0 1 12 10 2 0 0 0 0 0 0 0 0 0 0 0 0 0 0
0 0 0 0 0 0 0 23 23 23 17 52 61 75 51 46 9 13 5 2 12 4 4 7 8 3 7 0 0 0 0 0 0 0 0 0 0 0 0 0 0 0 0 0
0 0 0 0 0 0 0 9 0 1 0 7 41 45 96 58 5 7 1 6 3 35 21 5 5 2 0 0 0 0 0 0 0 0 0 0 0 0 0 0 0 0 0 0
0 0 0 0 0 1 0 0 0 2 4 18 8 3 24 19 18 18 19 22 7 9 8 15 12 0 0 0 0 0 0 0 0 0 0 0 0 0 0 0 0 0 0 0
14 0 0 0 0 0 0 3 1 3 0 0 0 19 23 4 7 22 15 11 12 16 5 0 0 0 0 0 0 0 0 0 0 0 0 0 0 0 0 0 0 0 0 0
15 0 0 0 0 0 0 0 2 0 1 23 18 31 21 15 10 15 14 37 27 6 0 0 0 0 0 0 0 0 0 0 0 0 0 0 0 0 0 0 0 0 0 0
0 1 0 0 0 0 4 10 7 12 31 20 19 35 19 3 1 5 6 0 0 0 0 0 0 0 0 0 0 0 0 0 0 0 0 0 0 0 0 0 0 0 0 0
0 0 0 0 23 7 29 50 53 39 31 32 12 0 0 0 0 0 0 0 0 0 0 0 0 0 0 0 0 0 0 0 0 0 0 0 0 0 0 0 0 0 6 0
CIN
0 0 0 0 0 0 0 0 0 0 0 0 0 0 0 0 0 0 0 0 0 0 0 -216 -284 -250 -193 -151 -109 -184 -121 -118 -105 -86 -83 -233 -136 -69 -18 -18 -36 -76 -95 -82
0 0 0 0 0 0 0 0 0 0 0 0 0 0 0 0 0 0 0 0 0 0 0 -247 -355 -263 -241 -258 -150 -122 -127 -116 -122 -105 -124 -175 -85 -33 -32 -35 -37 -64 -136 -142
0 0 0 0 0 0 0 0 0 0 0 0 0 0 0 0 0 0 0 0 0 0 0 -211 -391 -289 -254 -209 -132 -115 -131 -132 -104 -101 -123 -98 -110 -83 -23 -16 -54 -188 -75 -176
0 0 0 0 0 0 0 0 0 0 0 0 0 0 0 0 0 0 0 0 0 0 0 -208 -454 -405 -279 -186 -115 -114 -132 -134 -129 -145 -117 -160 -113 -70 -73 -62 -164 -75 -40 -77
0 0 0 0 0 0 0 0 0 0 0 0 0 0 0 0 0 0 0 0 0 0 0 -221 -460 -463 -267 -141 -146 -133 -168 -182 -189 -162 -195 -177 -181 -154 -134 -105 -75 -61 -72 -65
-2 0 -1 0 0 0 0 0 0 0 0 0 0 0 0 0 0 0 0 0 0 0 0 -338 -416 -331 -241 -115 -120 -159 -191 -128 -120 -83 -186 -159 -94 -75 -64 -61 -46 -75 -78 -84
-1 -5 -5 -10 -3 0 0 0 0 0 0 0 0 0 0 0 0 0 0 0 0 0 0 -460 -280 -198 -181 -196 -164 -262 -257 -203 -216 -168 -103 -73 -56 -102 -70 -48 -36 -54 -70 -59
-2 -1 -3 -1 0 0 0 0 0 0 0 0 0 0 0 0 0 0 0 0 0 0 -494 -350 -240 -171 -124 -138 -165 -161 -163 -163 -148 -67 -56 -61 -61 -71 -57 -40 -28 -40 -41 -58
-16 -2 -51 -16 -9 -5 0 0 0 0 0 0 0 0 -66 -364 0 -421 -424 -432 -339 -361 -259 -199 -138 -135 -98 -101 -80 -62 -87 -49 -53 -37 -47 -45 -43 -54 -60 -65 -52 -49 -97 -113
-8 -8 -19 -29 -20 -5 -2 0 0 0 0 0 0 0 0 -310 -329 -354 -412 -450 -296 -298 -213 -184 -108 -54 -75 -86 -86 -64 -47 -38 -42 -66 -49 -44 -35 -49 -48 -48 -69 -58 -52 -55
-11 -7 0 -2 -6 -13 0 0 0 0 0 0 0 -45 -132 -228 -183 -354 -306 -346 -349 -282 -188 -88 -127 -84 -57 -53 -59 -49 -35 -79 -93 -98 -77 -108 -47 -61 -51 -36 -50 -55 -37 -38
-31 -24 0 -2 0 0 0 0 0 0 0 0 0 -48 -151 -88 -131 -141 -157 -153 -173 -150 -165 -160 -111 -70 -64 -71 -70 -60 -54 -57 -33 -152 -155 -111 -81 -79 -98 -65 -60 -56 -35 0
-7 -17 0 0 -10 -11 -6 0 0 0 0 0 0 -48 -76 -84 -87 -76 -107 -106 -115 -143 -138 -123 -107 -78 -38 -25 -13 -5 -12 -19 0 0 0 0 0 -72 0 0 0 0 0 0
0 -18 0 0 0 0 0 0 -6 0 0 0 0 -103 -107 -99 -79 -119 -102 -73 -85 -85 -113 -57 -36 -22 -1 -2 0 0 0 0 0 0 0 0 0 0 0 0 0 0 0 0
0 -1 0 -25 -50 0 0 0 0 -9 0 0 -47 -110 -107 -175 -150 -126 -96 -73 -33 -41 -56 -32 0 0 0 0 0 0 0 0 0 0 0 0 0 0 0 0 0 0 0 0
0 -10 -3 -23 -45 -46 -26 -11 -31 -19 -13 -13 -88 -100 -45 -152 -92 -102 -84 -89 -103 -144 -100 -56 -18 0 0 0 0 0 0 0 0 0 0 0 0 0 0 0 0 0 0 0
-1 -4 0 -7 -35 -59 -28 -14 -46 -30 -124 -163 -61 -105 -57 -72 -128 -122 -110 -163 -134 -93 -78 -47 -10 -2 0 -12 -9 0 0 0 0 0 0 0 0 0 0 0 0 0 0 0
-24 -4 0 0 -12 0 0 -46 -83 -27 -112 -94 -94 -79 -98 -97 -94 -83 -87 -41 -102 -93 -87 -3 -54 0 0 -13 0 0 0 0 0 0 0 0 0 0 0 0 0 0 0 0
-9 -1 0 0 0 -1 -56 -66 -86 -38 -81 -60 -86 -119 -115 -120 -131 -114 -96 -74 -45 -30 -41 -3 -6 -1 -1 -2 0 -8 0 0 0 0 0 0 0 0 0 0 0 0 0 0
-31 0 0 0 0 0 0 -25 -36 -21 -75 -57 -51 -42 -203 -130 -64 -27 -41 -2 -2 -7 -12 -12 -8 -1 0 0 0 0 0 0 0 0 0 0 0 0 0 0 0 0 0 0
0 0 0 0 0 0 0 -8 -10 -17 0 -35 -44 -138 -86 -80 -25 -7 -1 -1 -2 -10 -2 -3 -5 -1 0 0 0 0 0 0 0 0 0 0 0 0 0 0 0 0 0 0
0 0 0 0 0 -14 0 0 0 -10 -12 -23 -45 -47 -79 -39 -34 -15 -3 -7 -12 -2 0 0 -4 0 0 0 0 0 0 0 0 0 0 0 0 0 0 0 0 0 0 0
0 0 0 0 0 0 0 -7 -3 -11 0 -53 -33 -48 -39 -29 -25 -14 -5 -5 0 -1 -14 0 0 0 0 0 0 0 0 0 0 0 0 0 0 0 0 0 0 0 0 0
-1 0 -1 0 0 0 0 0 -1 0 -2 -40 -15 -24 -7 -9 -15 -6 -1 0 -2 -4 0 0 0 0 0 0 0 0 0 0 0 0 0 0 0 0 0 0 0 0 0 0
0 -1 0 0 0 0 -2 -12 -14 -35 -26 -22 -8 -5 -2 -4 -3 -1 -1 0 0 0 0 0 0 0 0 0 0 0 0 0 0 0 0 0 0 0 0 0 0 0 0 0
0 0 0 0 -3 -24 -4 -7 -10 -12 -2 -1 -21 0 0 0 0 0 0 0 0 0 0 0 0 0 0 0 0 0 0 0 0 0 0 0 0 0 0 0 0 0 0 0
Wind_Speed
nan nan nan nan nan nan nan nan nan nan nan nan nan nan nan nan nan nan nan nan nan nan nan nan 58 56 52 50 47 45 44 40 43 42 43 38 37 38 38 35 35 38 38 38
nan nan nan nan nan nan nan nan nan nan nan nan nan nan nan nan nan nan nan nan nan nan nan nan 58 54 51 50 48 46 43 44 42 41 44 43 40 37 38 38 33 31 37 45
nan nan nan nan nan nan nan nan nan nan nan nan nan nan nan nan nan nan nan nan nan nan nan nan 48 45 48 44 44 43 42 45 44 45 46 46 46 45 43 37 38 40 43 47
nan nan nan nan nan nan nan nan nan nan nan nan nan nan nan nan nan nan nan nan nan nan nan nan 41 38 39 39 41 41 43 44 47 48 47 47 47 45 41 38 37 41 40 43
nan nan nan nan nan nan nan nan nan nan nan nan nan nan nan nan nan nan nan nan nan nan nan nan 34 34 33 39 41 43 43 41 41 44 45 42 39 37 38 38 38 37 38 43
nan nan nan nan nan nan nan nan nan nan nan nan nan nan nan nan nan nan nan nan nan nan nan nan 31 36 36 40 41 40 35 34 38 41 37 29 26 23 25 29 31 32 36 38
nan nan nan nan nan nan nan nan nan nan nan nan nan nan nan nan nan nan nan nan nan nan nan 36 34 30 27 27 31 34 38 38 37 33 26 22 20 15 21 24 23 24 23 20
nan nan nan nan nan nan nan nan nan nan nan nan nan nan nan nan nan nan nan nan nan nan nan 33 23 22 25 32 36 39 41 34 28 22 22 19 20 22 21 21 21 21 21 22
nan nan nan nan nan nan nan nan nan nan nan nan nan nan nan nan nan nan 43 47 48 45 42 32 28 25 28 30 29 30 29 29 27 27 24 23 23 24 23 24 25 24 26 nan
nan nan nan nan nan nan nan nan nan nan nan nan nan nan nan nan nan nan nan nan 45 40 39 37 35 38 29 27 28 31 31 33 33 25 21 26 27 26 26 28 30 nan nan nan
nan nan nan nan nan nan nan nan nan nan nan nan nan nan nan nan 42 nan nan 45 49 49 43 40 44 37 36 34 32 29 30 26 24 22 28 26 27 28 32 34 nan nan nan nan
nan nan nan nan nan nan nan nan nan nan nan nan nan nan nan 37 45 49 52 50 51 54 43 42 42 46 44 nan nan nan nan nan nan nan nan nan 34 36 nan nan nan nan nan nan
nan nan nan nan nan nan nan nan nan nan nan nan nan nan nan 34 38 43 49 44 41 42 42 41 46 nan nan nan nan nan nan nan nan nan nan nan nan nan nan nan nan nan nan nan
nan nan nan nan nan nan nan nan nan nan nan nan nan nan nan 28 27 36 38 36 36 41 nan nan nan nan nan nan nan nan nan nan nan nan nan nan nan nan nan nan nan nan nan nan
nan nan nan nan nan nan nan nan nan nan nan nan nan nan nan 27 28 32 33 36 nan nan nan nan nan nan nan nan nan nan nan nan nan nan nan nan nan nan nan nan nan nan nan nan
nan nan nan nan 47 45 nan nan nan nan nan nan nan nan nan nan 35 38 33 34 nan nan nan nan nan nan nan nan nan nan nan nan nan nan nan nan nan nan nan nan nan nan nan nan
nan nan nan nan 40 nan nan nan nan nan nan nan nan nan nan nan nan nan nan nan nan nan nan nan nan nan nan nan nan nan nan nan nan nan nan nan nan nan nan nan nan nan nan nan
nan nan nan nan nan nan nan nan nan nan nan nan nan 31 36 nan nan nan nan nan nan nan nan nan nan nan nan nan nan nan nan nan nan nan nan nan nan nan nan nan nan nan nan nan
nan nan nan nan nan nan nan nan nan nan nan nan 37 38 nan nan nan nan nan nan nan nan nan nan nan nan nan nan nan nan nan nan nan nan nan nan nan nan nan nan nan nan nan nan
nan nan nan nan nan nan nan nan nan nan nan nan nan nan nan nan nan nan nan nan nan nan nan nan nan nan nan nan nan nan nan nan nan nan nan nan nan nan nan nan nan nan nan nan
nan nan nan nan nan nan nan nan nan nan nan nan nan nan nan nan nan nan nan nan nan nan nan nan nan nan nan nan nan nan nan nan nan nan nan nan nan nan nan nan nan nan nan nan
nan nan nan nan nan nan nan nan nan nan nan nan nan nan nan nan nan nan nan nan nan nan nan nan nan nan nan nan nan nan nan nan nan nan nan nan nan nan nan nan nan nan nan nan
nan nan nan nan nan nan nan nan nan nan nan nan nan nan nan nan nan nan nan nan nan nan nan nan nan nan nan nan nan nan nan nan nan nan nan nan nan nan nan nan nan nan nan nan
nan nan nan nan nan nan nan nan nan nan nan nan nan nan nan nan nan nan nan nan nan nan nan nan nan nan nan nan nan nan nan nan nan nan nan nan nan nan nan nan nan nan nan nan
nan nan nan nan nan nan nan nan nan nan nan nan nan nan nan nan nan nan nan nan nan nan nan nan nan nan nan nan nan nan nan nan nan nan nan nan nan nan nan nan nan nan nan nan
nan nan nan nan nan nan nan nan nan nan nan nan nan nan nan nan nan nan nan nan nan nan nan nan nan nan nan nan nan nan nan nan nan nan nan nan nan nan nan nan nan nan nan nan
Wind_Direction
nan nan nan nan nan nan nan nan nan nan nan nan nan nan nan nan nan nan nan nan nan nan nan nan 260 261 272 278 282 283 280 278 276 268 268 267 265 264 267 272 277 274 277 279
nan nan nan nan nan nan nan nan nan nan nan nan nan nan nan nan nan nan nan nan nan nan nan nan 255 263 274 281 283 280 284 282 279 279 275 274 276 277 277 277 273 267 262 267
nan nan nan nan nan nan nan nan nan nan nan nan nan nan nan nan nan nan nan nan nan nan nan nan 257 261 264 275 280 282 284 282 281 278 276 276 277 273 274 272 268 268 269 267
nan nan nan nan nan nan nan nan nan nan nan nan nan nan nan nan nan nan nan nan nan nan nan nan 254 260 267 270 270 271 274 279 281 280 280 274 274 276 277 273 266 268 265 268
nan nan nan nan nan nan nan nan nan nan nan nan nan nan nan nan nan nan nan nan nan nan nan nan 273 270 267 261 263 264 270 275 281 280 279 281 282 278 275 271 271 269 268 267
nan nan nan nan nan nan nan nan nan nan nan nan nan nan nan nan nan nan nan nan nan nan nan nan 254 259 259 256 259 265 274 274 272 272 275 282 282 265 260 262 267 270 268 262
nan nan nan nan nan nan nan nan nan nan nan nan nan nan nan nan nan nan nan nan nan nan nan 257 260 260 265 270 263 256 254 249 252 256 247 246 258 263 261 254 255 260 253 251
nan nan nan nan nan nan nan nan nan nan nan nan nan nan nan nan nan nan nan nan nan nan nan 258 267 266 253 248 249 250 246 244 248 253 255 249 247 250 246 255 260 264 279 289
nan nan nan nan nan nan nan nan nan nan nan nan nan nan nan nan nan nan 217 227 231 227 235 242 235 240 237 242 244 235 236 239 241 250 248 253 260 262 267 264 274 281 288 nan
nan nan nan nan nan nan nan nan nan nan nan nan nan nan nan nan nan nan nan nan 238 243 245 249 236 233 229 230 233 236 232 244 242 246 253 257 265 273 281 283 284 nan nan nan
nan nan nan nan nan nan nan nan nan nan nan nan nan nan nan nan 235 nan nan 237 246 250 250 246 236 237 235 224 222 234 248 255 263 265 259 269 278 279 282 282 nan nan nan nan
nan nan nan nan nan nan nan nan nan nan nan nan nan nan nan 232 242 245 248 253 250 246 248 252 251 255 242 nan nan nan nan nan nan nan nan nan 272 271 nan nan nan nan nan nan
nan nan nan nan nan nan nan nan nan nan nan nan nan nan nan 228 240 242 251 250 252 257 259 255 258 nan nan nan nan nan nan nan nan nan nan nan nan nan nan nan nan nan nan nan
nan nan nan nan nan nan nan nan nan nan nan nan nan nan nan 228 241 249 252 257 265 272 nan nan nan nan nan nan nan nan nan nan nan nan nan nan nan nan nan nan nan nan nan nan
nan nan nan nan nan nan nan nan nan nan nan nan nan nan nan 240 245 245 252 250 nan nan nan nan nan nan nan nan nan nan nan nan nan nan nan nan nan nan nan nan nan nan nan nan
nan nan nan nan 212 206 nan nan nan nan nan nan nan nan nan nan 241 247 269 269 nan nan nan nan nan nan nan nan nan nan nan nan nan nan nan nan nan nan nan nan nan nan nan nan
nan nan nan nan 200 nan nan nan nan nan nan nan nan nan nan nan nan nan nan nan nan nan nan nan nan nan nan nan nan nan nan nan nan nan nan nan nan nan nan nan nan nan nan nan
nan nan nan nan nan nan nan nan nan nan nan nan nan 239 244 nan nan nan nan nan nan nan nan nan nan nan nan nan nan nan nan nan nan nan nan nan nan nan nan nan nan nan nan nan
nan nan nan nan nan nan nan nan nan nan nan nan 240 244 nan nan nan nan nan nan nan nan nan nan nan nan nan nan nan nan nan nan nan nan nan nan nan nan nan nan nan nan nan nan
nan nan nan nan nan nan nan nan nan nan nan nan nan nan nan nan nan nan nan nan nan nan nan nan nan nan nan nan nan nan nan nan nan nan nan nan nan nan nan nan nan nan nan nan
nan nan nan nan nan nan nan nan nan nan nan nan nan nan nan nan nan nan nan nan nan nan nan nan nan nan nan nan nan nan nan nan nan nan nan nan nan nan nan nan nan nan nan nan
nan nan nan nan nan nan nan nan nan nan nan nan nan nan nan nan nan nan nan nan nan nan nan nan nan nan nan nan nan nan nan nan nan nan nan nan nan nan nan nan nan nan nan nan
nan nan nan nan nan nan nan nan nan nan nan nan nan nan nan nan nan nan nan nan nan nan nan nan nan nan nan nan nan nan nan nan nan nan nan nan nan nan nan nan nan nan nan nan
nan nan nan nan nan nan nan nan nan nan nan nan nan nan nan nan nan nan nan nan nan nan nan nan nan nan nan nan nan nan nan nan nan nan nan nan nan nan nan nan nan nan nan nan
nan nan nan nan nan nan nan nan nan nan nan nan nan nan nan nan nan nan nan nan nan nan nan nan nan nan nan nan nan nan nan nan nan nan nan nan nan nan nan nan nan nan nan nan
nan nan nan nan nan nan nan nan nan nan nan nan nan nan nan nan nan nan nan nan nan nan nan nan nan nan nan nan nan nan nan nan nan nan nan nan nan nan nan nan nan nan nan nan